Weather reports worldwide

Advertisment
Northolt, United Kingdom (3672): temperature & dewpoint: 13.08.2018 20:00:00 - 19.08.2018 20:00:00 (BST)Northolt, United Kingdom (3672): temperature -20cm & temperature -100cm: 13.08.2018 20:00:00 - 19.08.2018 20:00:00 (BST)Northolt, United Kingdom (3672): wind speed & gusts: 13.08.2018 20:00:00 - 19.08.2018 20:00:00 (BST)Northolt, United Kingdom (3672): wind direction: 13.08.2018 20:00:00 - 19.08.2018 20:00:00 (BST)Northolt, United Kingdom (3672): reduced air pressure: 13.08.2018 20:00:00 - 19.08.2018 20:00:00 (BST)Northolt, United Kingdom (3672): visibility: 13.08.2018 20:00:00 - 19.08.2018 20:00:00 (BST)Northolt, United Kingdom (3672): precipitation: 13.08.2018 20:00:00 - 19.08.2018 20:00:00 (BST)
Date & Time tt [°C] td [°C] tt -20cm [°C] tt -100cm [°C] ff [km/h] ff [kn] fx [km/h] fx [kn] dd ppp [hPa] vv [km] rr [mm]
19.08.2018 20:00:00 22,3 16,2 - - 18 10 - - W 1018,0 10 0,0
19.08.2018 19:00:00 23,6 15,9 - - 18 10 - - WNW 1017,6 10 0,0
19.08.2018 18:00:00 25,3 15,8 - - 28 15 - - WNW 1017,3 10 0,0
19.08.2018 17:00:00 26,1 16,1 - - 28 15 - - WNW 1017,1 10 0,0
19.08.2018 16:00:00 26,3 16,5 - - 26 14 46 25 W 1017,0 10 0,0
19.08.2018 15:00:00 25,5 16,9 - - 24 13 - - WSW 1017,1 10 0,0
19.08.2018 14:00:00 23,9 16,7 - - 28 15 - - WSW 1017,4 10 0,0
19.08.2018 13:00:00 21,5 16,3 - - 24 13 - - WSW 1017,8 10 0,0
19.08.2018 12:00:00 20,2 15,9 - - 22 12 - - SW 1018,1 10 0,0
19.08.2018 11:00:00 19,2 15,6 - - 24 13 - - SW 1018,4 10 0,0
19.08.2018 10:00:00 18,5 15,1 18,9 18,5 22 12 - - WSW 1018,5 10 0,0
19.08.2018 09:00:00 18,2 15,1 - - 21 11 - - SW 1018,5 10 0,0
19.08.2018 08:00:00 17,9 14,7 - - 21 11 - - SW 1018,5 10 0,0
19.08.2018 07:00:00 17,5 14,2 - - 16 9 - - SW 1018,9 10 0,0
19.08.2018 06:00:00 17,5 14,7 - - 22 12 - - WSW 1019,0 10 0,0
19.08.2018 05:00:00 17,6 15,5 - - 13 7 - - SSW 1019,0 20 0,0
19.08.2018 04:00:00 18,1 15,7 - - 16 9 - - SSW 1019,7 10 0,0
19.08.2018 03:00:00 18,2 15,2 - - 15 8 - - SW 1020,2 10 0,0
19.08.2018 02:00:00 18,2 15,1 - - 11 6 - - SW 1020,5 10 0,0
19.08.2018 01:00:00 18,4 15,2 - - 11 6 - - SW 1020,7 20 0,0
19.08.2018 00:00:00 19,0 15,5 - - 11 6 - - SW 1020,9 22 0,0
18.08.2018 23:00:00 19,2 15,4 - - 13 7 - - WSW 1021,0 10 0,0
18.08.2018 22:00:00 19,8 15,4 - - 11 6 - - SW 1020,9 22 0,0
18.08.2018 21:00:00 20,2 15,4 - - 13 7 - - WSW 1021,0 29 0,0
18.08.2018 20:00:00 20,6 14,9 - - 16 9 - - W 1020,6 10 0,0
18.08.2018 19:00:00 21,2 14,7 - - 18 10 - - W 1020,4 10 0,0
18.08.2018 18:00:00 21,6 14,5 - - 21 11 - - W 1020,3 10 0,0
18.08.2018 17:00:00 21,7 14,4 - - 18 10 - - WSW 1020,2 10 0,0
18.08.2018 16:00:00 20,9 13,8 - - 21 11 - - WSW 1020,7 10 0,0
18.08.2018 15:00:00 20,2 14,0 - - 18 10 - - W 1021,0 10 0,0
18.08.2018 14:00:00 19,4 14,6 - - 21 11 - - W 1021,3 10 0,0
18.08.2018 13:00:00 19,9 13,4 - - 18 10 - - W 1021,3 10 0,0
18.08.2018 12:00:00 19,4 13,5 - - 22 12 - - W 1021,2 10 0,0
18.08.2018 11:00:00 19,3 13,5 - - 21 11 - - WSW 1021,2 10 0,0
18.08.2018 10:00:00 18,4 13,9 18,7 18,5 16 9 - - WSW 1021,4 10 0,0
18.08.2018 09:00:00 17,7 14,3 - - 16 9 - - WSW 1021,0 10 0,0
18.08.2018 08:00:00 16,8 14,2 - - 15 8 - - WSW 1020,8 10 0,0
18.08.2018 07:00:00 15,9 13,2 - - 5 3 - - SSW 1020,5 10 0,0
18.08.2018 06:00:00 14,9 12,5 - - 8 4 - - SSW 1020,3 21 0,0
18.08.2018 05:00:00 15,1 12,4 - - 9 5 - - SW 1020,0 10 0,0
18.08.2018 04:00:00 15,5 12,4 - - 13 7 - - SW 1020,2 10 0,0
18.08.2018 03:00:00 15,7 12,3 - - 13 7 - - SW 1020,6 10 0,0
18.08.2018 02:00:00 15,3 12,2 - - 11 6 - - WSW 1020,7 10 0,0
18.08.2018 01:00:00 16,5 12,2 - - 13 7 - - SW 1021,1 10 0,0
18.08.2018 00:00:00 16,7 12,1 - - 11 6 - - WSW 1021,5 26 0,0
17.08.2018 23:00:00 17,0 11,9 - - 13 7 - - WSW 1021,0 10 0,0
17.08.2018 22:00:00 17,0 11,4 - - 16 9 - - W 1020,9 10 0,0
17.08.2018 21:00:00 17,8 10,2 - - 18 10 - - W 1020,7 10 0,0
17.08.2018 20:00:00 18,9 10,2 - - 16 9 - - WNW 1020,2 10 0,0
17.08.2018 19:00:00 20,8 9,6 - - 22 12 46 25 WNW 1019,6 10 0,0
17.08.2018 18:00:00 21,2 9,6 - - 22 12 - - W 1019,3 10 0,0
17.08.2018 17:00:00 21,0 10,9 - - 18 10 - - WSW 1019,2 10 0,0
17.08.2018 16:00:00 21,0 8,8 - - 22 12 - - W 1019,6 10 0,0
17.08.2018 15:00:00 21,8 9,7 - - 18 10 - - WSW 1020,2 10 0,0
17.08.2018 14:00:00 20,6 7,9 - - 18 10 - - W 1020,3 10 0,0
17.08.2018 13:00:00 19,4 9,3 - - 16 9 - - WNW 1020,3 10 0,0
17.08.2018 12:00:00 19,7 9,5 - - 18 10 - - W 1020,4 10 0,0
17.08.2018 11:00:00 18,7 11,1 - - 13 7 - - WNW 1020,6 10 0,0
17.08.2018 10:00:00 17,7 11,3 18,7 18,7 9 5 - - W 1020,4 10 0,0
17.08.2018 09:00:00 15,0 11,7 - - 9 5 - - W 1020,2 10 0,0
17.08.2018 08:00:00 12,8 11,3 - - 8 4 - - W 1019,8 10 0,0
17.08.2018 07:00:00 10,3 9,5 - - 0 0 - - N 1019,4 10 0,0
17.08.2018 06:00:00 9,3 8,8 - - 2 1 - - W 1018,6 10 0,0
17.08.2018 05:00:00 10,0 9,6 - - 2 1 - - S 1018,1 10 0,0
17.08.2018 04:00:00 9,9 9,1 - - 2 1 - - W 1017,7 10 0,0
17.08.2018 03:00:00 11,0 10,1 - - 4 2 - - W 1017,6 10 0,0
17.08.2018 02:00:00 11,5 10,1 - - 8 4 - - WNW 1017,3 21 0,0
17.08.2018 01:00:00 12,7 10,3 - - 13 7 - - W 1017,1 30 0,0
17.08.2018 00:00:00 13,4 10,3 - - 13 7 - - WNW 1016,9 10 0,0
16.08.2018 23:00:00 14,6 10,2 - - 13 7 - - W 1016,3 10 0,0
16.08.2018 22:00:00 15,5 10,0 - - 11 6 - - WNW 1015,8 10 0,0
16.08.2018 21:00:00 16,8 9,8 - - 8 4 - - W 1015,3 10 0,0
16.08.2018 20:00:00 18,8 9,9 - - 15 8 - - WSW 1014,7 10 0,0
16.08.2018 19:00:00 19,4 8,8 - - 24 13 - - W 1014,1 10 0,0
16.08.2018 18:00:00 19,9 9,3 - - 18 10 - - W 1014,0 10 0,0
16.08.2018 17:00:00 19,3 14,7 - - 13 7 - - SSW 1013,8 10 0,0
16.08.2018 16:00:00 18,0 14,3 - - 13 7 - - SW 1013,9 10 0,0
16.08.2018 15:00:00 16,7 13,7 - - 11 6 - - WSW 1014,1 10 0,0
16.08.2018 14:00:00 15,3 14,0 - - 9 5 - - WSW 1014,1 25 0,2
16.08.2018 13:00:00 14,4 13,5 - - 9 5 - - WSW 1013,9 15 2,0
16.08.2018 12:00:00 16,1 15,5 - - 21 11 - - W 1013,0 8 2,4
16.08.2018 11:00:00 16,1 15,5 - - 8 4 - - W 1013,0 10 4,0
16.08.2018 10:00:00 15,6 14,8 19,4 18,7 24 13 - - WNW 1013,0 5 5,8
16.08.2018 09:00:00 17,7 16,8 - - 18 10 - - SW 1012,6 5 0,2
16.08.2018 08:00:00 18,2 16,0 - - 21 11 - - SW 1012,7 6 0,0
16.08.2018 07:00:00 18,5 15,6 - - 24 13 - - SW 1012,7 10 0,0
16.08.2018 06:00:00 18,3 15,2 - - 21 11 - - SSW 1012,8 10 0,0
16.08.2018 05:00:00 18,2 15,1 - - 21 11 - - SW 1013,2 10 0,0
16.08.2018 04:00:00 18,2 14,9 - - 21 11 - - WSW 1013,8 10 0,0
16.08.2018 03:00:00 18,5 15,0 - - 24 13 - - WSW 1014,1 10 0,0
16.08.2018 02:00:00 18,1 15,3 - - 15 8 - - SW 1014,4 10 0,0
16.08.2018 01:00:00 18,3 15,1 - - 13 7 - - SSW 1014,9 26 0,0
16.08.2018 00:00:00 18,1 14,7 - - 15 8 - - SW 1015,4 10 0,0
15.08.2018 23:00:00 18,9 14,6 - - 16 9 - - SW 1015,6 10 0,0
15.08.2018 22:00:00 19,3 14,8 - - 16 9 - - SW 1015,9 10 0,0
15.08.2018 21:00:00 20,0 14,9 - - 16 9 - - SW 1015,9 10 0,0
15.08.2018 20:00:00 20,8 15,3 - - 18 10 - - SW 1015,7 10 0,0
15.08.2018 19:00:00 21,5 14,3 - - 22 12 - - SW 1015,7 10 0,0
15.08.2018 18:00:00 22,3 14,5 - - 21 11 - - SW 1016,1 10 0,0
15.08.2018 17:00:00 23,4 14,9 - - 22 12 - - WSW 1016,3 10 0,0
15.08.2018 16:00:00 24,4 14,9 - - 22 12 - - WSW 1016,5 10 0,0
15.08.2018 15:00:00 23,5 15,4 - - 22 12 - - SW 1017,0 10 0,0
15.08.2018 14:00:00 22,3 15,0 - - 18 10 - - WSW 1017,6 10 0,0
15.08.2018 13:00:00 21,9 15,2 - - 16 9 - - WSW 1017,9 10 0,0
15.08.2018 12:00:00 21,4 14,8 - - 18 10 - - W 1018,2 10 0,0
15.08.2018 11:00:00 21,4 14,8 - - 18 10 - - WSW 1018,0 30 0,0
15.08.2018 10:00:00 19,9 14,4 19,2 18,7 18 10 - - W 1018,3 10 0,0
15.08.2018 09:00:00 19,3 13,9 - - 16 9 - - WSW 1018,2 10 0,0
15.08.2018 08:00:00 18,0 13,4 - - 11 6 - - WSW 1018,2 10 0,0
15.08.2018 07:00:00 17,6 13,0 - - 16 9 - - W 1018,2 10 0,0
15.08.2018 06:00:00 17,5 12,9 - - 22 12 - - W 1017,8 10 0,0
15.08.2018 05:00:00 16,3 13,5 - - 5 3 - - SSW 1017,8 18 0,0
15.08.2018 04:00:00 15,5 13,1 - - 5 3 - - SW 1018,0 10 0,0
15.08.2018 03:00:00 14,8 12,6 - - 8 4 - - WSW 1018,1 10 0,0
15.08.2018 02:00:00 15,4 12,5 - - 13 7 - - WSW 1018,0 10 0,0
15.08.2018 01:00:00 16,2 12,5 - - 8 4 - - W 1018,4 10 0,0
15.08.2018 00:00:00 17,0 12,6 - - 15 8 - - W 1018,3 10 0,0
14.08.2018 23:00:00 17,7 12,5 - - 18 10 - - W 1018,0 26 0,0
14.08.2018 22:00:00 18,8 12,8 - - 18 10 - - W 1018,0 10 0,0
14.08.2018 21:00:00 19,9 12,7 - - 21 11 - - W 1017,7 10 0,0
14.08.2018 20:00:00 22,4 14,2 - - 21 11 - - W 1016,8 10 0,0
14.08.2018 19:00:00 22,9 13,9 - - 22 12 - - W 1016,4 10 0,0
14.08.2018 18:00:00 23,8 13,5 - - 21 11 - - WNW 1016,3 10 0,0
14.08.2018 17:00:00 24,2 13,7 - - 22 12 - - WNW 1016,4 10 0,0
14.08.2018 16:00:00 25,0 13,1 - - 21 11 - - W 1016,5 10 0,0
14.08.2018 15:00:00 24,5 11,1 - - 22 12 - - W 1016,4 10 0,0
14.08.2018 14:00:00 23,4 11,5 - - 21 11 - - WNW 1016,7 10 0,0
14.08.2018 13:00:00 22,5 10,8 - - 21 11 - - WNW 1016,8 10 0,0
14.08.2018 12:00:00 21,2 11,6 - - 13 7 - - WNW 1016,6 10 0,0
14.08.2018 11:00:00 20,1 12,7 - - 13 7 - - W 1016,5 10 0,0
14.08.2018 10:00:00 17,6 13,2 19,2 18,7 13 7 - - W 1016,4 10 0,0
14.08.2018 09:00:00 16,4 13,0 - - 9 5 - - WNW 1016,3 10 0,0
14.08.2018 08:00:00 15,0 12,6 - - 9 5 - - WNW 1016,0 10 0,0
14.08.2018 07:00:00 14,2 12,4 - - 9 5 - - W 1015,7 10 0,0
14.08.2018 06:00:00 12,5 11,7 - - 5 3 - - WNW 1015,0 10 0,0
14.08.2018 05:00:00 12,9 11,6 - - 8 4 - - WNW 1014,4 10 0,0
14.08.2018 04:00:00 13,9 11,9 - - 8 4 - - WNW 1014,1 10 0,0
14.08.2018 03:00:00 14,5 12,2 - - 9 5 - - WNW 1013,6 10 0,0
14.08.2018 02:00:00 14,9 12,2 - - 8 4 - - WNW 1013,4 30 0,0
14.08.2018 01:00:00 16,0 12,6 - - 9 5 - - W 1012,7 10 0,0
14.08.2018 00:00:00 16,9 12,6 - - 11 6 - - WNW 1012,1 10 0,0
13.08.2018 23:00:00 17,8 13,7 - - 9 5 - - NW 1011,6 10 0,0
13.08.2018 22:00:00 19,4 13,9 - - 15 8 - - NW 1010,8 10 0,0
13.08.2018 21:00:00 20,6 14,7 - - 16 9 - - NNW 1010,0 10 0,0
13.08.2018 20:00:00 21,9 13,6 - - 16 9 - - NW 1009,0 10 0,0

tt = temperature
td = dewpoint
tt -20cm = temperature -20cm
tt -100cm = temperature -100cm
ff = wind speed
fx = gusts
dd = wind direction
ppp = reduced air pressure
vv = visibility
rr = precipitation

Next stations